FW8325 Weather Reports


Display with metric or nautical units.
time (UTC)temp
F
wind
direction
speed
MPH
gust
MPH
rain 1hr
in
rain 24hr
in
rain mn
in
humidity
%
barometer
mb
20260507040641 51 201 0.0 4.0 0.00 0.09 0.09 48 1017.7
20260507035616 51 223 3.0 15.0 0.00 0.09 0.09 45 1017.6
20260507034619 51 218 2.0 8.0 0.00 0.09 0.09 50 1017.6
20260507033619 53 213 2.0 8.0 0.00 0.09 0.09 51 1017.5
20260507032619 53 149 2.0 10.0 0.00 0.09 0.09 44 1017.2
20260507031619 53 136 1.0 9.0 0.00 0.09 0.09 50 1017.3
20260507030617 52 217 1.0 6.0 0.00 0.09 0.09 54 1017.2
20260507025618 52 196 0.0 2.0 0.00 0.09 0.09 52 1017.2
20260507024616 53 160 1.0 6.0 0.00 0.09 0.09 43 1017.1
20260507023615 54 188 0.0 2.0 0.00 0.09 0.09 48 1017.1
20260507022616 55 158 0.0 3.0 0.00 0.09 0.09 41 1017.0
20260507021654 55 193 0.0 0.0 0.00 0.09 0.09 42 1017.0
20260507020617 56 238 0.0 0.0 0.00 0.09 0.09 36 1016.8
20260507015655 57 277 0.0 0.0 0.00 0.09 0.09 34 1016.7
20260507014634 58 360 0.0 0.0 0.00 0.09 0.09 35 1016.7
20260507013633 58 31 0.0 3.0 0.00 0.09 0.09 34 1016.6
20260507012632 59 257 0.0 0.0 0.00 0.09 0.09 34 1016.6
20260507011653 58 245 0.0 1.0 0.00 0.09 0.09 35 1016.6
20260507010631 58 269 0.0 2.0 0.00 0.09 0.09 32 1016.5
20260507005631 58 267 0.0 3.0 0.00 0.09 0.09 35 1016.6
20260507004629 58 317 0.0 3.0 0.00 0.09 0.09 33 1016.8
20260507003630 58 244 0.0 8.0 0.00 0.09 0.09 31 1016.8
20260507002635 58 298 0.0 8.0 0.00 0.09 0.09 31 1016.9
20260507001634 58 270 1.0 8.0 0.00 0.09 0.09 32 1016.9
20260507000628 57 275 1.0 12.0 0.00 0.09 0.09 34 1016.9
20260506235648 57 323 1.0 9.0 0.00 0.09 0.09 33 1016.9
20260506234626 57 286 2.0 13.0 0.00 0.09 0.09 33 1016.8
20260506233628 57 263 2.0 9.0 0.00 0.09 0.09 33 1016.9
20260506232626 57 286 0.0 10.0 0.00 0.09 0.09 32 1016.9
20260506231624 57 302 2.0 9.0 0.00 0.09 0.09 32 1016.9
20260506230624 56 298 1.0 10.0 0.00 0.09 0.09 36 1017.0
20260506225624 55 290 2.0 8.0 0.00 0.09 0.09 39 1017.0
20260506224627 51 120 0.0 6.0 0.00 0.09 0.09 51 1017.2
20260506223625 50 108 1.0 7.0 0.00 0.09 0.09 49 1017.2
20260506222644 50 109 1.0 4.0 0.00 0.09 0.09 55 1017.3
20260506221620 49 114 1.0 6.0 0.00 0.09 0.09 56 1017.5
20260506220621 49 115 0.0 2.0 0.00 0.09 0.09 55 1017.5
20260506215639 47 124 0.0 0.0 0.00 0.09 0.09 57 1017.7
20260506214620 47 125 0.0 0.0 0.00 0.09 0.09 55 1018.0
20260506213620 46 128 0.0 0.0 0.00 0.09 0.09 53 1018.1
20260506212620 46 128 0.0 0.0 0.00 0.09 0.09 55 1018.0
20260506211618 46 123 0.0 4.0 0.00 0.09 0.09 52 1018.0
20260506210621 45 116 0.0 0.0 0.00 0.09 0.09 51 1018.2
20260506205619 45 129 0.0 1.0 0.00 0.09 0.09 48 1018.2
20260506204620 44 119 0.0 0.0 0.00 0.09 0.09 51 1018.3
20260506203621 44 119 0.0 0.0 0.00 0.09 0.09 47 1018.4
20260506202619 43 113 0.0 0.0 0.00 0.09 0.09 48 1018.4
20260506201623 43 112 0.0 0.0 0.00 0.09 0.09 47 1018.5
20260506200620 43 120 0.0 0.0 0.00 0.09 0.09 45 1018.6
20260506195639 43 99 0.0 0.0 0.00 0.09 0.09 43 1018.6
20260506194617 42 113 0.0 0.0 0.00 0.09 0.09 47 1018.6
20260506193636 42 104 0.0 0.0 0.00 0.09 0.09 49 1018.6
20260506192618 42 98 0.0 0.0 0.00 0.09 0.09 49 1018.6
20260506191616 41 94 0.0 0.0 0.00 0.09 0.09 53 1018.8
20260506190636 41 97 0.0 0.0 0.00 0.09 0.09 57 1018.9
20260506185615 41 99 0.0 0.0 0.00 0.09 0.09 57 1018.9
20260506184616 40 109 0.0 0.0 0.00 0.09 0.09 54 1019.0
20260506183636 40 110 0.0 0.0 0.00 0.09 0.09 58 1019.1
20260506182633 40 117 0.0 0.0 0.00 0.09 0.09 59 1019.2
20260506181650 39 123 0.0 0.0 0.00 0.09 0.09 58 1019.2
20260506180625 39 119 0.0 0.0 0.01 0.09 0.09 62 1019.2
20260506175628 39 120 0.0 0.0 0.02 0.09 0.09 62 1019.2
20260506174631 38 134 0.0 0.0 0.02 0.09 0.09 64 1019.2
20260506173629 38 120 0.0 0.0 0.02 0.09 0.09 64 1019.1
20260506172629 38 118 0.0 1.0 0.02 0.09 0.09 62 1019.2
20260506171627 38 119 0.0 0.0 0.02 0.09 0.09 68 1019.2
20260506170626 38 111 0.0 1.0 0.01 0.08 0.08 64 1019.2
20260506165629 38 115 0.0 0.0 0.00 0.08 0.07 67 1019.2
20260506164628 37 144 0.0 0.0 0.00 0.08 0.07 70 1019.1
20260506163629 37 133 0.0 3.0 0.00 0.08 0.07 68 1019.0
20260506162648 37 148 0.0 1.0 0.00 0.08 0.07 69 1019.0
20260506161626 36 142 0.0 1.0 0.00 0.08 0.07 71 1019.0
20260506160627 36 161 0.0 1.0 0.00 0.08 0.07 73 1018.9
20260506155625 36 175 0.0 1.0 0.00 0.22 0.07 72 1018.9
20260506154623 36 142 0.0 0.0 0.01 0.22 0.07 72 1018.9
20260506153622 35 131 0.0 0.0 0.01 0.22 0.07 74 1018.8
20260506152620 35 150 0.0 0.0 0.04 0.22 0.07 75 1018.8
20260506151625 35 184 0.0 1.0 0.04 0.22 0.07 77 1018.6
20260506150627 34 171 0.0 4.0 0.04 0.22 0.07 79 1018.6
20260506145646 34 173 0.0 4.0 0.04 0.28 0.07 80 1018.6
20260506144623 34 175 0.0 0.0 0.03 0.27 0.06 79 1018.5
20260506143641 34 177 0.0 0.0 0.03 0.27 0.06 79 1018.6
20260506142622 34 229 0.0 0.0 0.00 0.24 0.03 81 1018.4
20260506141622 33 220 0.0 0.0 0.00 0.24 0.03 82 1018.3
20260506140620 32 227 0.0 0.0 0.00 0.24 0.03 82 1018.2
20260506135622 33 214 0.0 1.0 0.00 0.36 0.03 83 1018.2
20260506134640 33 219 0.0 4.0 0.00 0.36 0.03 83 1018.1
20260506133623 33 216 1.0 6.0 0.00 0.36 0.03 82 1018.0
20260506132621 32 209 2.0 5.0 0.00 0.36 0.03 82 1017.8
20260506131619 33 209 1.0 4.0 0.00 0.36 0.03 82 1017.5
20260506130619 33 186 0.0 2.0 0.00 0.36 0.03 84 1017.3
20260506125616 33 220 0.0 0.0 0.00 0.38 0.03 84 1017.1
20260506124621 33 223 0.0 4.0 0.00 0.38 0.03 83 1017.0
20260506123620 33 186 1.0 5.0 0.00 0.38 0.03 83 1016.9
20260506122617 33 199 0.0 1.0 0.00 0.38 0.03 84 1016.8
20260506121616 33 230 0.0 0.0 0.00 0.38 0.03 85 1016.7
20260506120632 33 225 0.0 0.0 0.00 0.38 0.03 84 1016.5
20260506115632 32 230 0.0 0.0 0.00 0.43 0.03 85 1016.4
20260506114632 31 221 0.0 0.0 0.00 0.43 0.03 87 1016.3
20260506113631 31 246 0.0 0.0 0.00 0.43 0.03 87 1016.1
20260506112630 31 230 0.0 0.0 0.00 0.43 0.03 87 1016.0
20260506111629 31 230 0.0 0.0 0.00 0.43 0.03 84 1015.9
20260506110626 32 232 0.0 0.0 0.00 0.43 0.03 85 1015.7
20260506105633 33 233 0.0 1.0 0.00 0.46 0.03 84 1015.6
20260506104632 33 219 0.0 1.0 0.00 0.46 0.03 85 1015.6
20260506103651 33 163 0.0 0.0 0.00 0.46 0.03 85 1015.6
20260506102626 33 171 0.0 7.0 0.00 0.46 0.03 85 1015.6
20260506101625 34 232 0.0 3.0 0.00 0.46 0.03 86 1015.6
20260506100629 33 163 0.0 2.0 0.00 0.46 0.03 88 1015.4
20260506095628 33 223 0.0 0.0 0.00 0.60 0.03 85 1015.4
20260506094647 34 214 0.0 1.0 0.00 0.60 0.03 84 1015.5
20260506093623 34 165 0.0 4.0 0.00 0.60 0.03 83 1015.5
20260506092622 34 157 0.0 3.0 0.00 0.60 0.03 85 1015.4
20260506091625 34 157 0.0 4.0 0.00 0.60 0.03 86 1015.2
20260506090644 34 163 0.0 8.0 0.01 0.60 0.03 88 1015.4
20260506085623 33 186 2.0 15.0 0.01 0.60 0.03 90 1015.2
20260506084622 33 217 5.0 11.0 0.01 0.60 0.03 91 1015.3
20260506083622 33 211 4.0 18.0 0.01 0.60 0.03 92 1015.5
20260506082623 33 207 4.0 17.0 0.01 0.60 0.03 92 1015.6
20260506081623 33 211 6.0 17.0 0.01 0.60 0.03 92 1015.6
20260506080622 33 207 4.0 14.0 0.00 0.59 0.02 92 1016.0
20260506072657 34 142 1.0 7.0 0.02 0.61 0.02 90 1016.4
20260506071634 34 132 2.0 11.0 0.02 0.61 0.02 90 1016.1
20260506070635 34 207 2.0 11.0 0.01 0.60 0.01 90 1015.9
20260506061624 38 104 3.0 27.0 0.00 0.59 0.00 82 1014.5
20260506060632 38 113 8.0 27.0 0.00 0.59 0.00 78 1014.6
20260506050625 41 96 17.0 31.0 0.00 0.59 0.59 75 1012.0
20260506044621 44 91 17.0 32.0 0.00 0.59 0.59 76 1010.9
20260506043641 46 102 10.0 25.0 0.00 0.59 0.59 71 1010.6
20260506042622 49 286 0.0 0.0 0.00 0.59 0.59 58 1009.8
20260506041623 48 300 0.0 0.0 0.00 0.59 0.59 64 1009.7